Regional Weather Roundup
Issued by NWS Upton, NY

Current Version | Previous Version | Text Only | Print | Product List | Glossary Off
Versions: 1 2 3 4 5 6 7 8 9 10 11 12 13 14 15 16 17 18 19 20 21 22 23 24 25 26 27 28 29 30 31 32 33 34 35 36 37 38 39 40 41 42 43 44 45 46 47 48 49 50

000
ASUS41 KOKX 010307
RWROKX

REGIONAL WEATHER ROUNDUP
NATIONAL WEATHER SERVICE NEW YORK NY
1100 PM EDT TUE MAR 31 2015

NOTE: "FAIR" INDICATES FEW OR NO CLOUDS BELOW 12,000 FEET WITH NO
SIGNIFICANT WEATHER AND/OR OBSTRUCTIONS TO VISIBILITY.

NYZ071-072-176-178-NJZ106-104-010400-
NEW YORK CITY METRO AREA


CITY           SKY/WX    TMP DP  RH WIND       PRES   REMARKS
CENTRAL PARK   CLOUDY    36  32  85 N8        29.83R WCI  30
LAGUARDIA APRT CLOUDY    38  33  82 N9        29.81R WCI  31
KENNEDY INTL   CLOUDY    38  33  82 N14       29.81R WCI  30
NEWARK/LIBERTY CLOUDY    37  34  89 N12       29.81R WCI  29
BRNX BOT. GARD   N/A     36  34  93 N2        29.83R
TETERBORO      MOCLDY    36  33  89 N5        29.81S WCI  32
$$

NYZ177-179-078>081-010400-
LONG ISLAND NEW YORK

CITY           SKY/WX    TMP DP  RH WIND       PRES   REMARKS
FARMINGDALE    CLOUDY    36  34  92 N8        29.79R WCI  30
ISLIP          CLOUDY    36  33  89 N8        29.77R WCI  30
SHIRLEY        CLOUDY    36  34  92 N7        29.78S WCI  30
WESTHAMPTON    CLOUDY    36  33  89 NW9       29.78F WCI  29
MONTAUK POINT    N/A     37  34  89 NW6       29.78S WCI  32
$$

NYZ052-065-067-010400-
HUDSON VALLEY

CITY           SKY/WX    TMP DP  RH WIND       PRES   REMARKS
WHITE PLAINS   MOCLDY    33  31  92 NW7       29.78S WCI  27
NEWBURGH       FOG       30  30 100 CALM      29.81R VSB 1/8
MONTGOMERY     FOG       29  27  92 CALM      29.80S VSB 1/2
POUGHKEEPSIE   LGT RAIN  34  32  92 NW5       29.82S VSB 3/4 WCI  30
ALBANY         PTCLDY    35  18  49 N12       29.82R WCI  27
$$

NJZ001-105-106-008-010-013-015-019>022-104-010400-
NEW JERSEY

CITY           SKY/WX    TMP DP  RH WIND       PRES   REMARKS
NEWARK/LIBERTY CLOUDY    37  34  89 N12       29.81R WCI  29
TETERBORO      MOCLDY    36  33  89 N5        29.81S WCI  32
CALDWELL       CLOUDY    34  31  88 CALM      29.82S
MORRISTOWN     MOCLDY    36  34  93 N3        29.82S
SOMERVILLE     CLOUDY    35  32  88 NW3       29.81R
SUSSEX         CLOUDY    34  30  85 N6        29.82R WCI  29
ANDOVER          N/A     31  31 100 CALM      29.82R
TRENTON        CLOUDY    36  32  85 N8        29.81R WCI  30
MILLVILLE      MOCLDY    40  37  89 N8        29.81R WCI  34
ATLANTIC CITY    N/A     38  36  92 N9        29.79  WCI  31
WRIGHTSTOWN    CLOUDY    36  36  99 NW10      29.79R WCI  29
TOMS RIVER     CLOUDY    37  36  93 N7        29.80R WCI  32
BELMAR         CLOUDY    37  30  75 N10       29.79R WCI  30
$$

PAZ047>061-062-071-010400-
EASTERN PENNSYLVANIA

CITY           SKY/WX    TMP DP  RH WIND       PRES   REMARKS
PHILADELPHIA   CLOUDY    39  34  82 N12G28    29.84R WCI  32
ALLENTOWN      MOCLDY    36  30  79 NW8       29.85R WCI  30
SCRANTON       PTCLDY    31  26  82 CALM      29.85R
$$

CTZ002-004>006-009-010-012-RIZ004-006-007-MAZ004-011-015-010400-
SOUTHERN NEW ENGLAND
 IN CT

CITY           SKY/WX    TMP DP  RH WIND       PRES   REMARKS
BRADLEY INTL   CLEAR     34  31  88 S8        29.78R WCI  27
HARTFORD       CLEAR     34  32  92 S3        29.80R FOG
DANBURY        CLOUDY    33  29  85 NW3       29.80F
WTRBRY/OXFORD  MOCLDY    34  27  75 NW7       29.78S WCI  28
BRIDGEPORT     MOCLDY    37  34  89 NW6       29.79F WCI  32
MERIDEN        FOG       32  30  92 CALM      29.80R VSB 3/4
NEW HAVEN      MOCLDY    36  34  92 N3        29.78S
CHESTER        CLOUDY    34  34 100 NW5       29.77S WCI  30
GROTON         CLOUDY    36  35  96 NW5       29.77F WCI  32
WILLIMANTIC    CLOUDY    35  32  88 W3        29.79R

 IN RI

CITY           SKY/WX    TMP DP  RH WIND       PRES   REMARKS
PROVIDENCE     CLOUDY    38  32  79 NW5       29.77R WCI  34
BLOCK ISLAND   CLOUDY    36  34  93 NW6       29.76S WCI  31
WESTERLY       CLOUDY    36  34  92 VRB3      29.77F

 IN MA

CITY           SKY/WX    TMP DP  RH WIND       PRES   REMARKS
BOSTON         PTCLDY    38  22  52 NE8       29.77R WCI  32
WORCESTER      FAIR      37  16  42 NW8       29.74R WCI  31
WESTFIELD      CLEAR     32  26  78 N6        29.77R WCI  26
PROVINCETOWN   CLOUDY    37  32  81 SW5       29.76S WCI  34
NANTUCKET      CLOUDY    36  34  92 W3        29.75F
$$

ANZ330-335-338-340-345-350-353-355-010400-
COASTAL MARINE OBSERVATIONS


STATION/POSITION TIME  SKY/WX   TEMP    WIND        PRES    VSBY  WAVE
                                AIR SEA DIR/SP/G                  HT/PER
                 (UTC)          (F)     (DEG/KT/KT) (MB)    (MI)  (FT/S)
NY HARB ENTRANCE 0250            37 39   10/ 12/ 12 1008.6          2/ 8
4S FIRE IS       0203               37                N/A           2/ 7
20S FIRE ISLAND  NOT AVBL
23SW MTP         0250                                 N/A           2/ 7
HUDSON CANYON    NOT AVBL
EXECUTION ROCKS  NOT AVBL
WESTERN LI SOUND NOT AVBL
CENTRAL LI SOUND NOT AVBL
EASTERN LI SOUND NOT AVBL
ROBBINS REEF     0200            36     360/  4/  6 1007.7
$$


>>>>>>>>>>>>>>>>>>>>>>>>>>>> KEY <<<<<<<<<<<<<<<<<<<<<<<<<<<
>                                                          <
>     SKY/WX - SKY CONDITION/PRESENT WEATHER               <
>     TMP    - TEMPERATURE IN FAHRENHEIT                   <
>     DP     - DEWPOINT IN FAHRENHEIT                      <
>     RH     - RELATIVE HUMIDITY IN PERCENT                <
>     WIND   - DIRECTION AND SPEED IN MPH                  <
>     PRES   - MEAN SEA LEVEL PRESSURE IN INCHES OF HG     <
>     WCI    - WIND CHILL INDEX                            <
>     VSB    - VISIBILITY IN MILES                         <
>     HX     - HEAT INDEX                                  <
>     TC     - TEMPERATURE IN CELSIUS                      <
>     VRB    - VARIABLE WIND DIRECTION                     <
>                                                          <
>>>>>>>>>>>>>>>>>>>>>>>>>>>> KEY <<<<<<<<<<<<<<<<<<<<<<<<<<<





USA.gov is the U.S. government's official web portal to all federal, state and local government web resources and services.